Flag for France Weather past 2 weeks in Istres, France

Now
61 °F

Clear.


Feels Like: 61 °F
Forecast: 56 / 76 °F
Wind: 8 mph from North

Location: Istres Airport

Current Time: May 5, 2015 at 7:12:04 AM

Latest Report: May 5, 2015 at 6:30 AM


Visibility: N/A

Pressure: 29.71 "Hg

Humidity: 83%

Dew point: 55 °F

Location of IstresLocation

Historic Weather in Istres — Graph

°F

Istres temperature yesterday

Maximum temperature yesterday: 77 °F (at 2:00 PM)
Minimum temperature yesterday: 59 °F (at 7:00 AM)
Average temperature yesterday: 68 °F

Past Weeks' High & Low Weather Summary

 TemperatureHumidityPressure
High77 °F (May 4, 2:00 PM)100% (Apr 21, 4:00 AM)30.27 "Hg (Apr 21, 4:00 AM)
Low43 °F (Apr 29, 7:00 AM)34% (Apr 28, 4:30 PM)29.50 "Hg (Apr 27, 4:00 PM)
Average61 °F72%29.94 "Hg
* Reported Apr 20 6:00 AM — May 5 6:00 AM, Istres, Weather by CustomWeather, © 2015

Note: Actual official high and low records may vary slightly from our data, if they occured in-between our weather recording intervals... More about our weather records

Advertising

Istres weather history for previous 24 hours

 ConditionsComfort  
Time TempWeatherWind HumidityBarometerVisibility
6:00 AM
Tue, May 5
59 °FClear.8 mph94%29.71 "HgN/A
5:30 AM61 °FClear.3 mph88%29.71 "HgN/A
5:00 AM61 °FClear.5 mph88%29.71 "HgN/A
4:30 AM59 °FClear.2 mph94%29.71 "HgN/A
4:00 AM59 °FClear.5 mph88%29.74 "HgN/A
3:30 AM61 °FClear.2 mph83%29.74 "HgN/A
3:00 AM61 °FClear.2 mph88%29.74 "HgN/A
2:30 AM63 °FClear.2 mph77%29.74 "HgN/A
2:00 AM63 °FClear.1 mph77%29.74 "HgN/A
1:30 AM63 °FClear.3 mph77%29.74 "HgN/A
1:00 AM64 °FClear.2 mph68%29.74 "HgN/A
12:30 AM68 °FClear.7 mph56%29.74 "HgN/A
12:00 AM68 °FClear.8 mph56%29.74 "HgN/A
11:00 PM
Mon, May 4
66 °FClear.6 mph60%29.77 "HgN/A
10:30 PM68 °FClear.5 mph53%29.77 "HgN/A
10:00 PM68 °FClear.8 mph53%29.77 "HgN/A
9:30 PM70 °FClear.12 mph53%29.74 "HgN/A
9:00 PM70 °FClear.9 mph57%29.74 "HgN/A
8:30 PM72 °FClear.3 mph53%29.77 "HgN/A
8:00 PM72 °FClear.8 mph53%29.77 "HgN/A
7:30 PM72 °FClear.10 mph50%29.77 "HgN/A
7:00 PM72 °FClear.10 mph53%29.77 "HgN/A
6:30 PM73 °FClear.12 mph47%29.80 "HgN/A
6:00 PM73 °FClear.13 mph50%29.80 "HgN/A
5:30 PM75 °FMild.10 mph47%29.80 "HgN/A
5:00 PM75 °FClear.10 mph44%29.80 "HgN/A
4:30 PM75 °FClear.3 mph54%29.80 "HgN/A
4:00 PM73 °FClear.5 mph57%29.83 "HgN/A
3:30 PM73 °FClear.8 mph57%29.83 "HgN/A
3:00 PM73 °FClear.8 mph61%29.83 "HgN/A
2:30 PM77 °FClear.5 mph47%29.83 "HgN/A
2:00 PM77 °FClear.5 mph51%29.83 "HgN/A
1:30 PM75 °FClear.6 mph44%29.83 "HgN/A
1:00 PM75 °FClear.7 mph50%29.86 "HgN/A
12:30 PM73 °FClear.5 mph57%29.86 "HgN/A
12:00 PM72 °FClear.5 mph61%29.86 "HgN/A
11:30 AM70 °FClear.9 mph64%29.86 "HgN/A
11:00 AM68 °FClear.9 mph64%29.86 "HgN/A
10:30 AM66 °FClear.5 mph73%29.89 "HgN/A
10:00 AM66 °FClear.5 mph68%29.89 "HgN/A
9:30 AM64 °FClear.5 mph73%29.89 "HgN/A
9:00 AM64 °FClear.2 mph73%29.89 "HgN/A
8:30 AM64 °FClear.3 mph78%29.89 "HgN/A
8:00 AM63 °FClear.3 mph77%29.86 "HgN/A
7:30 AM61 °FClear.3 mph88%29.86 "HgN/A
7:00 AM59 °FClear.2 mph88%29.86 "HgN/A
Weather by CustomWeather, © 2015

See weather overviewHow to use our weather pages